Location: 22
(39.7117°N, 89.5929°W)
Time: 17:16:17
(UTC-05:00)

Gurwin Techsat 1B - Pass Details

Date: 03 April 2023
Orbit: 811 x 813 km, 98.9° (Epoch: 06 June)

Event Time Altitude Azimuth Distance (km) Brightness Sun altitude
Rises 03:01:28 0° 25° (NNE) 3,345 12.7 -37.3°
Reaches altitude 10° 03:04:09 10° 37° (NE) 2,409 11.8 -36.9°
Enters shadow 03:07:41 27° 76° (ENE) 1,537 10.4 -36.5°
